| time (UTC) | temp F | wind direction | speed MPH | gust MPH | rain 1hr in | rain 24hr in | rain mn in | humidity % | barometer mb |
| 20260510141308 | 48 | 90 | 0.0 | 0.0 | 0.00 | 0.00 | 0.00 | 90 | 1032.0 |
| 20260510140808 | 48 | 90 | 0.0 | 0.0 | 0.00 | 0.00 | 0.00 | 91 | 1032.0 |
| 20260510140308 | 48 | 90 | 0.0 | 0.0 | 0.00 | 0.00 | 0.00 | 91 | 1032.2 |
| 20260510135808 | 49 | 90 | 0.0 | 1.0 | 0.00 | 0.00 | 0.00 | 91 | 1032.2 |
| 20260510134807 | 48 | 90 | 0.0 | 0.0 | 0.00 | 0.00 | 0.00 | 90 | 1032.0 |
| 20260510134307 | 47 | 90 | 0.0 | 0.0 | 0.00 | 0.00 | 0.00 | 91 | 1032.0 |
| 20260510132807 | 46 | 90 | 0.0 | 0.0 | 0.00 | 0.00 | 0.00 | 90 | 1032.3 |
| 20260510132307 | 46 | 90 | 0.0 | 0.0 | 0.00 | 0.00 | 0.00 | 90 | 1032.1 |
| 20260510131806 | 46 | 90 | 0.0 | 0.0 | 0.00 | 0.00 | 0.00 | 90 | 1032.1 |
| 20260510131308 | 46 | 90 | 0.0 | 0.0 | 0.00 | 0.00 | 0.00 | 89 | 1032.1 |
| 20260510130808 | 47 | 90 | 0.0 | 0.0 | 0.00 | 0.00 | 0.00 | 89 | 1032.2 |
| 20260510130307 | 47 | 90 | 0.0 | 0.0 | 0.00 | 0.00 | 0.00 | 89 | 1032.2 |
| 20260510125808 | 47 | 90 | 0.0 | 0.0 | 0.00 | 0.00 | 0.00 | 89 | 1032.1 |
| 20260510125307 | 47 | 90 | 0.0 | 0.0 | 0.00 | 0.00 | 0.00 | 88 | 1032.2 |
| 20260510124807 | 47 | 90 | 0.0 | 0.0 | 0.00 | 0.00 | 0.00 | 88 | 1032.2 |
| 20260510124307 | 48 | 90 | 0.0 | 0.0 | 0.00 | 0.00 | 0.00 | 88 | 1032.2 |
| 20260510123807 | 48 | 90 | 0.0 | 0.0 | 0.00 | 0.00 | 0.00 | 88 | 1032.2 |
| 20260510123307 | 48 | 90 | 0.0 | 0.0 | 0.00 | 0.00 | 0.00 | 88 | 1032.1 |
| 20260510122307 | 48 | 90 | 0.0 | 0.0 | 0.00 | 0.00 | 0.00 | 87 | 1032.3 |
| 20260510121806 | 49 | 90 | 0.0 | 0.0 | 0.00 | 0.00 | 0.00 | 87 | 1032.3 |
| 20260510121308 | 49 | 90 | 0.0 | 0.0 | 0.00 | 0.00 | 0.00 | 87 | 1032.2 |
| 20260510120806 | 49 | 90 | 0.0 | 0.0 | 0.00 | 0.00 | 0.00 | 87 | 1032.3 |
| 20260510120306 | 49 | 90 | 0.0 | 0.0 | 0.00 | 0.00 | 0.00 | 87 | 1032.2 |
| 20260510115806 | 49 | 90 | 0.0 | 0.0 | 0.00 | 0.00 | 0.00 | 86 | 1032.1 |
| 20260510115307 | 49 | 90 | 0.0 | 0.0 | 0.00 | 0.00 | 0.00 | 86 | 1032.4 |
| 20260510114806 | 50 | 90 | 0.0 | 0.0 | 0.00 | 0.00 | 0.00 | 86 | 1032.1 |
| 20260510114310 | 50 | 90 | 0.0 | 0.0 | 0.00 | 0.00 | 0.00 | 86 | 1032.2 |
| 20260510113813 | 51 | 90 | 0.0 | 0.0 | 0.00 | 0.00 | 0.00 | 86 | 1032.2 |
| 20260510113308 | 51 | 90 | 0.0 | 0.0 | 0.00 | 0.00 | 0.00 | 86 | 1032.2 |
| 20260510112806 | 51 | 90 | 0.0 | 0.0 | 0.00 | 0.00 | 0.00 | 86 | 1032.2 |
| 20260510112307 | 52 | 90 | 0.0 | 0.0 | 0.00 | 0.00 | 0.00 | 85 | 1032.0 |
| 20260510111807 | 52 | 90 | 0.0 | 0.0 | 0.00 | 0.00 | 0.00 | 86 | 1032.0 |
| 20260510111307 | 52 | 90 | 0.0 | 0.0 | 0.00 | 0.00 | 0.00 | 86 | 1032.0 |
| 20260510110808 | 53 | 90 | 0.0 | 0.0 | 0.00 | 0.00 | 0.00 | 86 | 1032.0 |
| 20260510110307 | 53 | 90 | 0.0 | 0.0 | 0.00 | 0.00 | 0.00 | 86 | 1031.8 |
| 20260510105808 | 53 | 90 | 0.0 | 1.0 | 0.00 | 0.00 | 0.00 | 86 | 1031.9 |
| 20260510104807 | 52 | 112 | 0.0 | 0.0 | 0.00 | 0.00 | 0.00 | 86 | 1031.8 |
| 20260510104308 | 52 | 112 | 0.0 | 1.0 | 0.00 | 0.00 | 0.00 | 86 | 1031.8 |
| 20260510103806 | 52 | 135 | 0.0 | 0.0 | 0.00 | 0.00 | 0.00 | 86 | 1031.9 |
| 20260510103307 | 52 | 135 | 0.0 | 0.0 | 0.00 | 0.00 | 0.00 | 86 | 1031.9 |
| 20260510102807 | 52 | 135 | 0.0 | 0.0 | 0.00 | 0.00 | 0.00 | 86 | 1032.0 |
| 20260510102307 | 51 | 135 | 0.0 | 0.0 | 0.00 | 0.00 | 0.00 | 86 | 1031.9 |
| 20260510101806 | 51 | 135 | 0.0 | 0.0 | 0.00 | 0.00 | 0.00 | 86 | 1031.9 |
| 20260510101307 | 51 | 135 | 0.0 | 0.0 | 0.00 | 0.00 | 0.00 | 86 | 1031.9 |
| 20260510100308 | 51 | 135 | 0.0 | 0.0 | 0.00 | 0.00 | 0.00 | 85 | 1031.7 |
| 20260510095807 | 51 | 135 | 0.0 | 0.0 | 0.00 | 0.00 | 0.00 | 84 | 1031.9 |
| 20260510095308 | 50 | 135 | 0.0 | 0.0 | 0.00 | 0.00 | 0.00 | 83 | 1031.7 |
| 20260510094807 | 51 | 135 | 0.0 | 0.0 | 0.00 | 0.00 | 0.00 | 83 | 1031.7 |
| 20260510094307 | 51 | 135 | 0.0 | 0.0 | 0.00 | 0.00 | 0.00 | 83 | 1031.6 |
| 20260510093807 | 51 | 135 | 0.0 | 0.0 | 0.00 | 0.00 | 0.00 | 82 | 1031.9 |
| 20260510093307 | 51 | 135 | 0.0 | 0.0 | 0.00 | 0.00 | 0.00 | 82 | 1031.5 |
| 20260510092808 | 52 | 135 | 0.0 | 0.0 | 0.00 | 0.00 | 0.00 | 81 | 1031.5 |
| 20260510092308 | 52 | 135 | 0.0 | 0.0 | 0.00 | 0.00 | 0.00 | 81 | 1031.6 |
| 20260510091807 | 52 | 135 | 0.0 | 0.0 | 0.00 | 0.00 | 0.00 | 79 | 1031.4 |
| 20260510091307 | 52 | 135 | 0.0 | 0.0 | 0.00 | 0.00 | 0.00 | 77 | 1031.4 |
| 20260510090806 | 53 | 135 | 0.0 | 0.0 | 0.00 | 0.00 | 0.00 | 76 | 1031.4 |
| 20260510090307 | 53 | 135 | 0.0 | 0.0 | 0.00 | 0.00 | 0.00 | 75 | 1031.4 |
| 20260510084808 | 54 | 135 | 0.0 | 0.0 | 0.00 | 0.00 | 0.00 | 72 | 1031.3 |
| 20260510084308 | 55 | 135 | 0.0 | 0.0 | 0.00 | 0.00 | 0.00 | 72 | 1031.2 |
| 20260510083307 | 56 | 135 | 0.0 | 0.0 | 0.00 | 0.00 | 0.00 | 71 | 1031.3 |
| 20260510082806 | 56 | 135 | 0.0 | 0.0 | 0.00 | 0.00 | 0.00 | 70 | 1031.1 |
| 20260510082307 | 57 | 135 | 0.0 | 0.0 | 0.00 | 0.00 | 0.00 | 70 | 1031.2 |
| 20260510081806 | 57 | 135 | 0.0 | 0.0 | 0.00 | 0.00 | 0.00 | 69 | 1031.1 |
| 20260510081307 | 58 | 135 | 0.0 | 1.0 | 0.00 | 0.00 | 0.00 | 69 | 1031.1 |
| 20260510080808 | 58 | 135 | 1.0 | 3.0 | 0.00 | 0.00 | 0.00 | 68 | 1030.9 |
| 20260510075808 | 59 | 137 | 1.0 | 2.0 | 0.00 | 0.00 | 0.00 | 67 | 1030.7 |
| 20260510075308 | 59 | 134 | 1.0 | 5.0 | 0.00 | 0.00 | 0.00 | 67 | 1030.8 |
| 20260510074808 | 59 | 89 | 1.0 | 3.0 | 0.00 | 0.00 | 0.00 | 66 | 1030.7 |
| 20260510074307 | 59 | 91 | 2.0 | 3.0 | 0.00 | 0.00 | 0.00 | 66 | 1030.8 |
| 20260510073807 | 59 | 91 | 1.0 | 3.0 | 0.00 | 0.00 | 0.00 | 66 | 1030.7 |
| 20260510073307 | 59 | 111 | 2.0 | 3.0 | 0.00 | 0.00 | 0.00 | 66 | 1030.7 |
| 20260510072808 | 59 | 90 | 1.0 | 3.0 | 0.00 | 0.00 | 0.00 | 66 | 1030.6 |
| 20260510072307 | 59 | 69 | 1.0 | 3.0 | 0.00 | 0.00 | 0.00 | 66 | 1030.6 |
| 20260510071807 | 60 | 115 | 1.0 | 3.0 | 0.00 | 0.00 | 0.00 | 66 | 1030.6 |
| 20260510071308 | 60 | 112 | 1.0 | 2.0 | 0.00 | 0.00 | 0.00 | 66 | 1030.6 |
| 20260510070807 | 60 | 112 | 1.0 | 2.0 | 0.00 | 0.00 | 0.00 | 66 | 1030.5 |
| 20260510070307 | 60 | 106 | 1.0 | 3.0 | 0.00 | 0.00 | 0.00 | 65 | 1030.6 |
| 20260510065808 | 60 | 88 | 0.0 | 3.0 | 0.00 | 0.00 | 0.00 | 65 | 1030.6 |
| 20260510065307 | 60 | 112 | 1.0 | 3.0 | 0.00 | 0.00 | 0.00 | 65 | 1030.6 |
| 20260510064806 | 60 | 157 | 1.0 | 3.0 | 0.00 | 0.00 | 0.00 | 65 | 1030.4 |
| 20260510064307 | 60 | 95 | 1.0 | 2.0 | 0.00 | 0.00 | 0.00 | 66 | 1030.6 |
| 20260510063307 | 60 | 90 | 1.0 | 5.0 | 0.00 | 0.00 | 0.00 | 65 | 1030.3 |
| 20260510062807 | 60 | 90 | 2.0 | 5.0 | 0.00 | 0.00 | 0.00 | 64 | 1030.4 |
| 20260510061807 | 61 | 199 | 1.0 | 5.0 | 0.00 | 0.00 | 0.00 | 63 | 1030.4 |
| 20260510061308 | 61 | 91 | 1.0 | 5.0 | 0.00 | 0.00 | 0.00 | 64 | 1030.3 |
| 20260510060808 | 61 | 116 | 2.0 | 3.0 | 0.00 | 0.00 | 0.00 | 63 | 1030.4 |
| 20260510055806 | 61 | 155 | 2.0 | 5.0 | 0.00 | 0.00 | 0.00 | 63 | 1030.3 |
| 20260510055308 | 61 | 139 | 2.0 | 5.0 | 0.00 | 0.00 | 0.00 | 63 | 1030.4 |
| 20260510054808 | 61 | 90 | 2.0 | 3.0 | 0.00 | 0.00 | 0.00 | 62 | 1030.1 |
| 20260510053807 | 61 | 202 | 1.0 | 3.0 | 0.00 | 0.00 | 0.00 | 63 | 1030.1 |
| 20260510053308 | 61 | 180 | 0.0 | 3.0 | 0.00 | 0.00 | 0.00 | 64 | 1030.3 |
| 20260510052808 | 61 | 223 | 1.0 | 5.0 | 0.00 | 0.00 | 0.00 | 65 | 1030.3 |
| 20260510052307 | 61 | 291 | 2.0 | 5.0 | 0.00 | 0.00 | 0.00 | 65 | 1030.0 |
| 20260510051806 | 61 | 224 | 2.0 | 5.0 | 0.00 | 0.00 | 0.00 | 65 | 1030.2 |
| 20260510050807 | 61 | 133 | 3.0 | 6.0 | 0.00 | 0.00 | 0.00 | 64 | 1030.2 |
| 20260510050307 | 61 | 113 | 2.0 | 5.0 | 0.00 | 0.00 | 0.00 | 65 | 1030.2 |
| 20260510045807 | 61 | 114 | 1.0 | 5.0 | 0.00 | 0.00 | 0.00 | 64 | 1030.1 |
| 20260510045307 | 61 | 177 | 2.0 | 5.0 | 0.00 | 0.00 | 0.00 | 63 | 1030.2 |
| 20260510044807 | 61 | 221 | 1.0 | 5.0 | 0.00 | 0.00 | 0.00 | 63 | 1030.1 |
| 20260510044307 | 61 | 114 | 3.0 | 5.0 | 0.00 | 0.00 | 0.00 | 63 | 1030.3 |
| 20260510043807 | 62 | 112 | 2.0 | 5.0 | 0.00 | 0.00 | 0.00 | 62 | 1030.1 |
| 20260510043307 | 62 | 114 | 1.0 | 3.0 | 0.00 | 0.00 | 0.00 | 62 | 1030.1 |
| 20260510042807 | 62 | 112 | 1.0 | 3.0 | 0.00 | 0.00 | 0.00 | 62 | 1030.0 |
| 20260510042307 | 62 | 199 | 2.0 | 3.0 | 0.00 | 0.00 | 0.00 | 62 | 1030.2 |
| 20260510041806 | 62 | 176 | 3.0 | 6.0 | 0.00 | 0.00 | 0.00 | 62 | 1030.1 |
| 20260510041307 | 62 | 118 | 3.0 | 6.0 | 0.00 | 0.00 | 0.00 | 61 | 1030.1 |
| 20260510035807 | 62 | 124 | 1.0 | 3.0 | 0.00 | 0.00 | 0.00 | 61 | 1030.1 |
| 20260510035307 | 62 | 114 | 1.0 | 2.0 | 0.00 | 0.00 | 0.00 | 61 | 1030.3 |
| 20260510034807 | 62 | 230 | 2.0 | 5.0 | 0.00 | 0.00 | 0.00 | 62 | 1030.4 |
| 20260510033807 | 61 | 157 | 3.0 | 5.0 | 0.00 | 0.00 | 0.00 | 62 | 1030.2 |
| 20260510032807 | 61 | 143 | 2.0 | 6.0 | 0.00 | 0.00 | 0.00 | 64 | 1030.3 |
| 20260510032306 | 62 | 175 | 1.0 | 5.0 | 0.00 | 0.00 | 0.00 | 63 | 1030.5 |
| 20260510031307 | 62 | 154 | 2.0 | 5.0 | 0.00 | 0.00 | 0.00 | 62 | 1030.4 |
| 20260510030807 | 62 | 222 | 2.0 | 3.0 | 0.00 | 0.00 | 0.00 | 63 | 1030.5 |
| 20260510030307 | 61 | 268 | 0.0 | 6.0 | 0.00 | 0.00 | 0.00 | 64 | 1030.4 |
| 20260510025807 | 61 | 225 | 2.0 | 6.0 | 0.00 | 0.00 | 0.00 | 63 | 1030.5 |
| 20260510024806 | 61 | 248 | 2.0 | 5.0 | 0.00 | 0.00 | 0.00 | 64 | 1030.7 |
| 20260510024307 | 61 | 113 | 2.0 | 5.0 | 0.00 | 0.00 | 0.00 | 62 | 1030.9 |
| 20260510023807 | 61 | 225 | 1.0 | 6.0 | 0.00 | 0.00 | 0.00 | 62 | 1030.9 |
| 20260510023308 | 61 | 133 | 3.0 | 6.0 | 0.00 | 0.00 | 0.00 | 62 | 1030.9 |
| 20260510022807 | 61 | 190 | 2.0 | 6.0 | 0.00 | 0.00 | 0.00 | 64 | 1030.9 |
| 20260510022308 | 62 | 185 | 3.0 | 6.0 | 0.00 | 0.00 | 0.00 | 62 | 1030.9 |
| 20260510021307 | 62 | 96 | 2.0 | 6.0 | 0.00 | 0.00 | 0.00 | 62 | 1030.9 |
| 20260510020807 | 61 | 178 | 2.0 | 6.0 | 0.00 | 0.00 | 0.00 | 62 | 1031.3 |
| 20260510020307 | 61 | 110 | 2.0 | 5.0 | 0.00 | 0.00 | 0.00 | 62 | 1031.3 |
| 20260510015807 | 61 | 221 | 1.0 | 6.0 | 0.00 | 0.00 | 0.00 | 63 | 1031.2 |
| 20260510015308 | 61 | 197 | 3.0 | 7.0 | 0.00 | 0.00 | 0.00 | 63 | 1031.3 |
| 20260510014307 | 61 | 113 | 3.0 | 6.0 | 0.00 | 0.00 | 0.00 | 65 | 1031.4 |
| 20260510013307 | 61 | 116 | 3.0 | 6.0 | 0.00 | 0.00 | 0.00 | 64 | 1031.6 |
| 20260510012807 | 61 | 135 | 1.0 | 5.0 | 0.00 | 0.00 | 0.00 | 62 | 1031.6 |
| 20260510012307 | 62 | 112 | 2.0 | 3.0 | 0.00 | 0.00 | 0.00 | 61 | 1031.7 |
| 20260510011807 | 63 | 136 | 2.0 | 3.0 | 0.00 | 0.00 | 0.00 | 61 | 1031.7 |
| 20260510011307 | 63 | 112 | 2.0 | 6.0 | 0.00 | 0.00 | 0.00 | 60 | 1031.6 |
| 20260510010807 | 62 | 68 | 2.0 | 5.0 | 0.00 | 0.00 | 0.00 | 60 | 1031.6 |
| 20260510010308 | 61 | 92 | 2.0 | 5.0 | 0.00 | 0.00 | 0.00 | 62 | 1031.6 |
| 20260510005807 | 60 | 132 | 2.0 | 5.0 | 0.00 | 0.00 | 0.00 | 63 | 1031.6 |
| 20260510005308 | 60 | 160 | 3.0 | 6.0 | 0.00 | 0.00 | 0.00 | 63 | 1031.8 |
| 20260510004808 | 60 | 161 | 2.0 | 7.0 | 0.00 | 0.00 | 0.00 | 63 | 1031.7 |
| 20260510003807 | 61 | 221 | 3.0 | 6.0 | 0.00 | 0.00 | 0.00 | 64 | 1031.7 |
| 20260510003307 | 60 | 119 | 2.0 | 5.0 | 0.00 | 0.00 | 0.00 | 65 | 1031.6 |
| 20260510002807 | 60 | 160 | 1.0 | 5.0 | 0.00 | 0.00 | 0.00 | 69 | 1031.7 |
| 20260510002307 | 60 | 199 | 2.0 | 6.0 | 0.00 | 0.00 | 0.00 | 69 | 1031.7 |
| 20260510001807 | 59 | 200 | 2.0 | 7.0 | 0.00 | 0.00 | 0.00 | 71 | 1031.6 |
| 20260510000806 | 59 | 181 | 2.0 | 6.0 | 0.00 | 0.00 | 0.00 | 76 | 1031.7 |
| 20260510000311 | 59 | 192 | 1.0 | 3.0 | 0.00 | 0.00 | 0.00 | 81 | 1031.7 |
| 20260509235807 | 58 | 209 | 2.0 | 5.0 | 0.00 | 0.00 | 0.00 | 81 | 1031.8 |
| 20260509235307 | 58 | 269 | 2.0 | 3.0 | 0.00 | 0.00 | 0.00 | 82 | 1031.6 |
| 20260509234807 | 58 | 230 | 2.0 | 3.0 | 0.00 | 0.00 | 0.00 | 83 | 1031.7 |
| 20260509234307 | 58 | 241 | 2.0 | 5.0 | 0.00 | 0.00 | 0.00 | 83 | 1031.7 |
| 20260509233307 | 58 | 182 | 1.0 | 3.0 | 0.00 | 0.00 | 0.00 | 85 | 1031.7 |
| 20260509232807 | 57 | 247 | 1.0 | 3.0 | 0.00 | 0.00 | 0.00 | 85 | 1031.6 |
| 20260509232307 | 57 | 268 | 1.0 | 3.0 | 0.00 | 0.00 | 0.00 | 85 | 1031.6 |
| 20260509231806 | 57 | 251 | 2.0 | 5.0 | 0.00 | 0.00 | 0.00 | 85 | 1031.7 |
| 20260509231306 | 57 | 201 | 2.0 | 5.0 | 0.00 | 0.00 | 0.00 | 86 | 1031.7 |
| 20260509230807 | 57 | 232 | 1.0 | 3.0 | 0.00 | 0.00 | 0.00 | 86 | 1031.6 |
| 20260509230308 | 57 | 205 | 1.0 | 2.0 | 0.00 | 0.00 | 0.00 | 87 | 1031.5 |
| 20260509225308 | 56 | 270 | 1.0 | 1.0 | 0.00 | 0.00 | 0.00 | 88 | 1031.6 |
| 20260509224807 | 56 | 268 | 1.0 | 2.0 | 0.00 | 0.00 | 0.00 | 88 | 1031.6 |
| 20260509224307 | 56 | 226 | 1.0 | 2.0 | 0.00 | 0.00 | 0.00 | 88 | 1031.4 |
| 20260509223807 | 56 | 203 | 1.0 | 2.0 | 0.00 | 0.00 | 0.00 | 89 | 1031.4 |
| 20260509222807 | 56 | 270 | 1.0 | 1.0 | 0.00 | 0.00 | 0.00 | 90 | 1031.4 |
| 20260509221806 | 55 | 248 | 0.0 | 1.0 | 0.00 | 0.00 | 0.00 | 91 | 1031.4 |
| 20260509221308 | 55 | 270 | 1.0 | 2.0 | 0.00 | 0.00 | 0.00 | 91 | 1031.2 |
| 20260509220807 | 55 | 268 | 0.0 | 2.0 | 0.00 | 0.00 | 0.00 | 92 | 1031.2 |
| 20260509220307 | 55 | 270 | 1.0 | 1.0 | 0.00 | 0.00 | 0.00 | 92 | 1031.0 |
| 20260509215807 | 55 | 250 | 0.0 | 1.0 | 0.00 | 0.00 | 0.00 | 92 | 1031.0 |
| 20260509215307 | 55 | 204 | 0.0 | 1.0 | 0.00 | 0.00 | 0.00 | 92 | 1030.8 |
| 20260509214808 | 55 | 226 | 1.0 | 1.0 | 0.00 | 0.00 | 0.00 | 92 | 1030.8 |
| 20260509214308 | 55 | 248 | 1.0 | 1.0 | 0.00 | 0.00 | 0.00 | 92 | 1030.6 |
| 20260509213307 | 55 | 270 | 0.0 | 2.0 | 0.00 | 0.00 | 0.00 | 93 | 1030.7 |
| 20260509212806 | 55 | 270 | 1.0 | 2.0 | 0.00 | 0.00 | 0.00 | 93 | 1030.4 |
| 20260509212307 | 55 | 249 | 1.0 | 1.0 | 0.00 | 0.00 | 0.00 | 93 | 1030.6 |
| 20260509211307 | 55 | 243 | 2.0 | 3.0 | 0.00 | 0.00 | 0.00 | 93 | 1030.4 |
| 20260509210808 | 55 | 226 | 1.0 | 2.0 | 0.00 | 0.00 | 0.00 | 93 | 1030.5 |
| 20260509210307 | 55 | 270 | 1.0 | 2.0 | 0.00 | 0.00 | 0.00 | 94 | 1030.3 |
| 20260509205308 | 55 | 228 | 1.0 | 2.0 | 0.00 | 0.00 | 0.00 | 94 | 1030.3 |
| 20260509204808 | 55 | 292 | 0.0 | 1.0 | 0.00 | 0.00 | 0.00 | 94 | 1030.1 |
| 20260509204307 | 55 | 270 | 0.0 | 0.0 | 0.00 | 0.00 | 0.00 | 94 | 1030.2 |
| 20260509203807 | 55 | 248 | 0.0 | 1.0 | 0.00 | 0.00 | 0.00 | 94 | 1030.2 |
| 20260509203307 | 55 | 292 | 0.0 | 0.0 | 0.00 | 0.00 | 0.00 | 94 | 1030.1 |
| 20260509202808 | 55 | 292 | 0.0 | 0.0 | 0.00 | 0.00 | 0.00 | 94 | 1030.1 |
| 20260509202307 | 55 | 292 | 0.0 | 0.0 | 0.00 | 0.00 | 0.00 | 94 | 1030.1 |
| 20260509201806 | 55 | 292 | 0.0 | 0.0 | 0.00 | 0.00 | 0.00 | 94 | 1029.9 |
| 20260509200806 | 55 | 292 | 0.0 | 0.0 | 0.00 | 0.00 | 0.00 | 94 | 1029.9 |
| 20260509200307 | 55 | 292 | 0.0 | 0.0 | 0.00 | 0.00 | 0.00 | 94 | 1029.8 |
| 20260509195807 | 55 | 292 | 0.0 | 1.0 | 0.00 | 0.00 | 0.00 | 94 | 1029.8 |
| 20260509195307 | 55 | 270 | 0.0 | 1.0 | 0.00 | 0.00 | 0.00 | 94 | 1029.6 |
| 20260509194808 | 55 | 268 | 0.0 | 1.0 | 0.00 | 0.00 | 0.00 | 94 | 1029.6 |
| 20260509194308 | 55 | 246 | 0.0 | 1.0 | 0.00 | 0.00 | 0.00 | 94 | 1029.6 |
| 20260509193806 | 55 | 270 | 0.0 | 1.0 | 0.00 | 0.00 | 0.00 | 94 | 1029.4 |
| 20260509193307 | 55 | 270 | 1.0 | 1.0 | 0.00 | 0.00 | 0.00 | 94 | 1029.5 |
| 20260509192808 | 55 | 270 | 0.0 | 1.0 | 0.00 | 0.00 | 0.00 | 94 | 1029.3 |
| 20260509192308 | 55 | 227 | 0.0 | 1.0 | 0.00 | 0.00 | 0.00 | 94 | 1029.5 |
| 20260509191806 | 55 | 223 | 0.0 | 0.0 | 0.00 | 0.00 | 0.00 | 94 | 1029.4 |
| 20260509191307 | 55 | 227 | 0.0 | 1.0 | 0.00 | 0.00 | 0.00 | 94 | 1029.4 |
| 20260509190808 | 55 | 250 | 0.0 | 1.0 | 0.00 | 0.00 | 0.00 | 94 | 1029.3 |
| 20260509190308 | 55 | 251 | 1.0 | 1.0 | 0.00 | 0.00 | 0.00 | 94 | 1029.3 |
| 20260509185808 | 55 | 248 | 1.0 | 2.0 | 0.00 | 0.00 | 0.00 | 93 | 1029.3 |
| 20260509185307 | 55 | 267 | 1.0 | 2.0 | 0.00 | 0.00 | 0.00 | 93 | 1029.2 |
| 20260509184807 | 55 | 160 | 1.0 | 2.0 | 0.00 | 0.00 | 0.00 | 93 | 1029.2 |
| 20260509184307 | 55 | 212 | 1.0 | 3.0 | 0.00 | 0.00 | 0.00 | 93 | 1029.1 |
| 20260509183807 | 55 | 225 | 1.0 | 1.0 | 0.00 | 0.00 | 0.00 | 93 | 1029.1 |
| 20260509183308 | 55 | 225 | 0.0 | 1.0 | 0.00 | 0.00 | 0.00 | 93 | 1029.1 |
| 20260509182807 | 55 | 224 | 1.0 | 1.0 | 0.00 | 0.00 | 0.00 | 93 | 1029.1 |
| 20260509182307 | 55 | 227 | 0.0 | 1.0 | 0.00 | 0.00 | 0.00 | 93 | 1029.0 |
| 20260509180807 | 55 | 225 | 0.0 | 1.0 | 0.00 | 0.00 | 0.00 | 93 | 1028.8 |
| 20260509175807 | 55 | 205 | 1.0 | 2.0 | 0.00 | 0.00 | 0.00 | 93 | 1028.8 |
| 20260509175307 | 55 | 202 | 1.0 | 3.0 | 0.00 | 0.00 | 0.00 | 93 | 1028.7 |
| 20260509174808 | 55 | 200 | 1.0 | 2.0 | 0.00 | 0.00 | 0.00 | 93 | 1028.8 |
| 20260509174308 | 55 | 242 | 1.0 | 2.0 | 0.00 | 0.00 | 0.00 | 93 | 1028.8 |
| 20260509173807 | 55 | 187 | 1.0 | 3.0 | 0.00 | 0.00 | 0.00 | 93 | 1028.9 |
| 20260509173307 | 55 | 204 | 1.0 | 2.0 | 0.00 | 0.00 | 0.00 | 93 | 1028.7 |
| 20260509171807 | 55 | 262 | 1.0 | 2.0 | 0.00 | 0.00 | 0.00 | 93 | 1028.7 |
| 20260509171306 | 55 | 248 | 1.0 | 2.0 | 0.00 | 0.00 | 0.00 | 92 | 1028.8 |
| 20260509170808 | 55 | 249 | 1.0 | 2.0 | 0.00 | 0.00 | 0.00 | 92 | 1028.9 |
| 20260509170307 | 55 | 288 | 1.0 | 2.0 | 0.00 | 0.00 | 0.00 | 92 | 1028.9 |
| 20260509165807 | 55 | 246 | 1.0 | 2.0 | 0.00 | 0.00 | 0.00 | 92 | 1029.1 |
| 20260509164807 | 56 | 243 | 1.0 | 6.0 | 0.00 | 0.00 | 0.00 | 91 | 1028.9 |
| 20260509164308 | 56 | 223 | 1.0 | 2.0 | 0.00 | 0.00 | 0.00 | 91 | 1028.9 |
| 20260509163308 | 56 | 180 | 0.0 | 1.0 | 0.00 | 0.00 | 0.00 | 90 | 1028.9 |
| 20260509162808 | 56 | 244 | 1.0 | 2.0 | 0.00 | 0.00 | 0.00 | 90 | 1029.1 |
| 20260509162307 | 56 | 270 | 1.0 | 2.0 | 0.00 | 0.00 | 0.00 | 89 | 1029.0 |
| 20260509161806 | 56 | 248 | 0.0 | 1.0 | 0.00 | 0.00 | 0.00 | 89 | 1029.1 |
| 20260509161307 | 56 | 248 | 0.0 | 1.0 | 0.00 | 0.00 | 0.00 | 89 | 1029.1 |
| 20260509160807 | 56 | 225 | 0.0 | 1.0 | 0.00 | 0.00 | 0.00 | 89 | 1029.1 |
| 20260509160307 | 56 | 246 | 0.0 | 2.0 | 0.00 | 0.00 | 0.00 | 89 | 1028.9 |
| 20260509155808 | 56 | 246 | 0.0 | 0.0 | 0.00 | 0.00 | 0.00 | 89 | 1029.0 |
| 20260509154807 | 56 | 202 | 1.0 | 2.0 | 0.00 | 0.00 | 0.00 | 88 | 1029.0 |
| 20260509154308 | 56 | 270 | 1.0 | 2.0 | 0.00 | 0.00 | 0.00 | 88 | 1029.0 |
| 20260509153807 | 56 | 202 | 1.0 | 1.0 | 0.00 | 0.00 | 0.00 | 88 | 1029.3 |
| 20260509153307 | 56 | 208 | 1.0 | 3.0 | 0.00 | 0.00 | 0.00 | 88 | 1029.2 |
| 20260509152808 | 56 | 289 | 1.0 | 3.0 | 0.00 | 0.00 | 0.00 | 88 | 1029.1 |
| 20260509152307 | 56 | 228 | 2.0 | 3.0 | 0.00 | 0.00 | 0.00 | 88 | 1028.8 |
| 20260509151807 | 56 | 182 | 1.0 | 2.0 | 0.00 | 0.00 | 0.00 | 87 | 1029.1 |
| 20260509151307 | 57 | 247 | 1.0 | 3.0 | 0.00 | 0.00 | 0.00 | 87 | 1029.0 |
| 20260509150808 | 57 | 185 | 1.0 | 2.0 | 0.00 | 0.00 | 0.00 | 87 | 1029.1 |
| 20260509150307 | 57 | 264 | 1.0 | 3.0 | 0.00 | 0.00 | 0.00 | 87 | 1029.1 |
| 20260509145807 | 57 | 249 | 1.0 | 3.0 | 0.00 | 0.00 | 0.00 | 87 | 1029.2 |
| 20260509144807 | 57 | 270 | 1.0 | 3.0 | 0.00 | 0.00 | 0.00 | 86 | 1029.2 |
| 20260509143807 | 57 | 220 | 2.0 | 6.0 | 0.00 | 0.00 | 0.00 | 86 | 1029.0 |
| 20260509143308 | 57 | 247 | 2.0 | 5.0 | 0.00 | 0.00 | 0.00 | 86 | 1028.9 |
| 20260509142807 | 57 | 244 | 2.0 | 5.0 | 0.00 | 0.00 | 0.00 | 86 | 1029.0 |
| 20260509142308 | 57 | 215 | 2.0 | 5.0 | 0.00 | 0.00 | 0.00 | 87 | 1029.2 |
| 20260509141807 | 57 | 224 | 3.0 | 5.0 | 0.00 | 0.00 | 0.00 | 87 | 1028.9 |